Location: Madingley
(52.2167°N, 0.0500°E)
Time: 05:34:18
(UTC+00:00)

CZ-4 R/B - Pass Details

Date: 15 May 2026
Orbit: 491 x 534 km, 97.5° (Epoch: 6 June)

Event Time Altitude Azimuth Distance (km) Brightness Sun altitude
Rises 21:15:55 0° 221° (SW) 2,563 4.6 -10.7°
Reaches altitude 10° 21:20:13 10° 271° (W) 1,692 4.4 -11.1°
Maximum altitude 21:20:24 10° 274° (W) 1,691 4.4 -11.1°
Drops below altitude 10° 21:20:34 10° 277° (W) 1,693 4.5 -11.1°
Sets 21:24:56 0° 327° (NNW) 2,593 7.0 -11.5°
